DW1958 Weather Reports


Display with metric or nautical units.
time (UTC)temp
F
wind
direction
speed
MPH
gust
MPH
rain 1hr
in
rain 24hr
in
rain mn
in
humidity
%
barometer
mb
20260503032726 47 277 1.0 9.0 0.00 0.00 0.00 60 1009.5
20260503030926 48 258 2.0 11.0 0.00 0.00 0.00 57 1009.3
20260503025126 48 264 3.0 11.0 0.00 0.00 0.00 59 1008.9
20260503024226 48 275 2.0 10.0 0.00 0.00 0.00 58 1008.8
20260503022426 49 266 3.0 13.0 0.00 0.00 0.00 57 1008.6
20260503021526 49 261 4.0 13.0 0.00 0.00 0.00 55 1008.4
20260503020626 49 256 4.0 18.0 0.00 0.00 0.00 55 1008.2
20260503015726 50 273 4.0 17.0 0.00 0.00 0.00 55 1008.1
20260503013926 52 243 7.0 22.0 0.00 0.00 0.00 49 1007.3
20260503013026 52 234 7.0 17.0 0.00 0.00 0.00 49 1007.3
20260503012126 51 237 7.0 19.0 0.00 0.00 0.00 49 1007.2
20260503011226 51 234 7.0 19.0 0.00 0.00 0.00 47 1007.1
20260503005426 52 242 4.0 18.0 0.00 0.00 0.00 45 1006.8
20260503004526 52 251 7.0 22.0 0.00 0.00 0.00 43 1006.7
20260503003626 52 248 8.0 19.0 0.00 0.00 0.00 44 1006.6
20260503001826 53 230 6.0 18.0 0.00 0.00 0.00 43 1006.3
20260503000926 53 228 7.0 19.0 0.00 0.00 0.00 43 1006.2
20260503000026 53 218 6.0 16.0 0.00 0.00 0.00 42 1006.1
20260502235126 52 220 5.0 14.0 0.00 0.00 0.00 43 1005.9
20260502234226 52 222 8.0 20.0 0.00 0.00 0.00 43 1005.9
20260502233326 52 233 8.0 21.0 0.00 0.00 0.00 43 1005.7
20260502232426 52 230 7.0 25.0 0.00 0.00 0.00 44 1005.8
20260502231526 52 228 8.0 21.0 0.00 0.00 0.00 44 1005.5
20260502230626 52 229 7.0 20.0 0.00 0.00 0.00 44 1005.4
20260502225726 52 234 5.0 16.0 0.00 0.00 0.00 45 1005.4
20260502224826 52 230 6.0 17.0 0.00 0.00 0.00 43 1005.3
20260502223926 52 227 8.0 20.0 0.00 0.00 0.00 43 1005.3
20260502223026 52 223 7.0 20.0 0.00 0.00 0.00 44 1005.4
20260502222126 52 220 5.0 19.0 0.00 0.00 0.00 43 1005.3
20260502221226 52 228 6.0 17.0 0.00 0.00 0.00 43 1005.2
20260502220326 53 219 8.0 22.0 0.00 0.00 0.00 42 1005.1
20260502215426 53 222 6.0 18.0 0.00 0.00 0.00 42 1004.9
20260502214526 53 230 6.0 16.0 0.00 0.00 0.00 44 1004.9
20260502213626 54 241 8.0 23.0 0.00 0.00 0.00 42 1004.9
20260502212726 54 239 6.0 17.0 0.00 0.00 0.00 41 1004.7
20260502211826 55 228 6.0 17.0 0.00 0.00 0.00 41 1004.6
20260502210926 54 231 4.0 11.0 0.00 0.00 0.00 42 1004.6
20260502210026 54 228 4.0 11.0 0.00 0.00 0.00 44 1004.6
20260502205126 52 223 5.0 13.0 0.00 0.00 0.00 45 1004.5
20260502204226 52 211 6.0 19.0 0.00 0.00 0.00 47 1004.5
20260502203326 51 223 4.0 13.0 0.00 0.00 0.00 49 1004.3
20260502202426 50 214 7.0 17.0 0.00 0.00 0.00 48 1004.3
20260502201527 50 225 4.0 19.0 0.00 0.00 0.00 51 1004.2
20260502200626 50 241 3.0 10.0 0.00 0.00 0.00 50 1004.1
20260502195726 50 249 3.0 12.0 0.00 0.00 0.00 54 1004.0
20260502194826 49 0 0.0 4.0 0.00 0.00 0.00 57 1003.9
20260502193926 47 217 1.0 5.0 0.00 0.00 0.00 58 1003.8
20260502193026 47 200 1.0 4.0 0.00 0.00 0.00 59 1003.8
20260502192127 47 0 0.0 1.0 0.00 0.00 0.00 60 1003.6
20260502191226 46 185 1.0 4.0 0.00 0.00 0.00 59 1003.5
20260502190326 46 0 0.0 3.0 0.00 0.00 0.00 60 1003.5
20260502185427 45 0 0.0 3.0 0.00 0.00 0.00 61 1003.4
20260502183626 45 0 0.0 0.0 0.00 0.00 0.00 66 1003.2
20260502182727 45 0 0.0 3.0 0.00 0.00 0.00 64 1003.1
20260502181826 44 0 0.0 0.0 0.00 0.00 0.00 67 1003.0
20260502180926 44 0 0.0 0.0 0.00 0.00 0.00 69 1003.0
20260502163927 39 0 0.0 2.0 0.00 0.00 0.00 83 1001.5
20260502163026 38 0 0.0 1.0 0.00 0.00 0.00 84 1001.4
20260502161226 38 0 0.0 1.0 0.00 0.00 0.00 86 1001.2
20260502160327 37 0 0.0 0.0 0.00 0.00 0.00 86 1001.1
20260502151826 36 0 0.0 0.0 0.00 0.00 0.00 86 1000.4
20260502150927 36 0 0.0 0.0 0.00 0.00 0.00 86 1000.3
20260502130326 39 0 0.0 1.0 0.00 0.00 0.00 78 998.4
20260502123627 40 268 2.0 9.0 0.00 0.00 0.00 76 997.9
20260502122726 40 257 3.0 14.0 0.00 0.00 0.00 74 997.7
20260502121827 40 253 2.0 14.0 0.00 0.00 0.00 74 997.5
20260502120927 40 251 5.0 15.0 0.00 0.00 0.00 75 997.3
20260502115127 39 249 4.0 12.0 0.00 0.00 0.00 77 996.9
20260502113327 37 243 3.0 12.0 0.00 0.00 0.00 81 996.4
20260502112427 37 212 2.0 7.0 0.00 0.00 0.00 83 996.2
20260502111527 36 224 2.0 7.0 0.00 0.00 0.00 85 995.8
20260502110627 36 247 3.0 10.0 0.00 0.00 0.00 86 995.6
20260502105726 35 259 2.0 7.0 0.00 0.00 0.00 88 995.4
20260502104826 35 258 1.0 6.0 0.00 0.00 0.00 88 995.0
20260502103027 34 278 1.0 4.0 0.00 0.00 0.00 88 994.5
20260502090927 36 0 0.0 0.0 0.00 0.00 0.00 86 992.9
20260502071227 38 0 0.0 0.0 0.00 0.00 0.00 84 991.4
20260502070327 38 0 0.0 0.0 0.00 0.00 0.00 85 991.5
20260502065427 38 0 0.0 0.0 0.00 0.00 0.00 84 991.4
20260502064527 38 0 0.0 0.0 0.00 0.00 0.00 83 991.3
20260502063627 39 0 0.0 0.0 0.00 0.00 0.00 84 991.2
20260502062727 39 0 0.0 0.0 0.00 0.00 0.00 83 991.2
20260502061827 39 0 0.0 1.0 0.00 0.00 0.00 82 991.1
20260502060927 39 74 1.0 2.0 0.00 0.00 0.00 83 991.1
20260502060027 39 0 0.0 2.0 0.00 0.00 0.00 83 991.3
20260502055127 39 0 0.0 3.0 0.00 0.00 0.00 82 991.2
20260502053327 40 0 0.0 0.0 0.00 0.00 0.00 81 991.2
20260502052427 40 0 0.0 0.0 0.00 0.00 0.00 80 991.1
20260502051527 40 0 0.0 1.0 0.00 0.00 0.00 79 991.1
20260502050627 41 75 1.0 3.0 0.00 0.00 0.00 78 991.1
20260502045727 41 73 2.0 4.0 0.00 0.00 0.00 76 991.2
20260502044827 42 74 1.0 3.0 0.00 0.00 0.00 74 991.4
20260502043927 42 0 0.0 0.0 0.00 0.00 0.00 71 991.6
20260502043027 43 0 0.0 0.0 0.00 0.00 0.00 70 991.6
20260502042127 43 0 0.0 0.0 0.00 0.00 0.00 69 991.6
20260502041228 43 0 0.0 0.0 0.00 0.00 0.00 67 991.5
20260502040327 44 78 1.0 3.0 0.00 0.00 0.00 66 991.6
20260502035427 44 0 0.0 3.0 0.00 0.00 0.00 65 991.6
20260502034527 45 74 2.0 6.0 0.00 0.00 0.00 64 991.8
20260502033627 45 68 1.0 4.0 0.00 0.00 0.00 63 991.8